Home   Weather   Kufstein   Past weeks

Flag for Austria Past Weather in Kufstein, Tyrol, Austria — Yesterday and Last 2 Weeks

Now
19 °F

Cold.


Feels Like: 19 °F
Forecast: 9 / 28 °F
Wind: 1 mph from Southwest

Location: Kufstein

Current Time: Jan 18, 2017 at 9:25:38 pm

Latest Report: Jan 18, 2017 at 8:00 pm


Visibility: N/A

Pressure: 30.63 "Hg

Humidity: 79%

Dew Point: 14 °F

Location of KufsteinLocation

Past Weather in Kufstein — Graph

°F

Kufstein Temperature Yesterday

Maximum temperature yesterday: 26 °F (at 4:00 pm)
Minimum temperature yesterday: 19 °F (at 11:00 pm)
Average temperature yesterday: 24 °F

High & Low Weather Summary for the Past Weeks

 TemperatureHumidityPressure
High40 °F (Jan 13, 10:00 am)97% (Jan 12, 2:00 am)30.85 "Hg (Jan 12, 2:00 am)
Low0 °F (Jan 7, 6:00 am)42% (Jan 13, 3:00 pm)29.47 "Hg (Jan 13, 3:00 am)
Average25 °F85%30.25 "Hg
* Reported Jan 3 8:00 pm — Jan 18 8:00 pm, Kufstein, Weather by CustomWeather, © 2017

Note: Actual official high and low records may vary slightly from our data, if they occured in-between our weather recording intervals... More about our weather records

Advertising

Kufstein Weather History for the Previous 24 Hours

Scroll right to see more
 ConditionsComfort  
Time TempWeatherWind HumidityBarometerVisibility
8:00 pm
Wed, Jan 18
19 °FCold.1 mph79%30.63 "HgN/A
7:00 pm20 °FCold.1 mph79%30.61 "HgN/A
6:00 pm23 °FCold.1 mph79%30.59 "HgN/A
5:00 pm24 °FCold.1 mph75%30.59 "HgN/A
4:00 pm24 °FCold.2 mph72%30.58 "HgN/A
3:00 pm24 °FCold.2 mph70%30.58 "HgN/A
2:00 pm22 °FCold.1 mph72%30.59 "HgN/A
1:00 pm19 °FCold.1 mph75%30.61 "HgN/A
12:00 pm17 °FCold.1 mph80%30.64 "HgN/A
11:00 am14 °FCold.1 mph82%30.67 "HgN/A
10:00 am12 °FCold.No wind83%30.67 "HgN/A
9:00 am9 °FFrigid.1 mph85%30.68 "HgN/A
8:00 am9 °FFrigid.1 mph86%30.67 "HgN/A
7:00 am9 °FFrigid.1 mph88%30.66 "HgN/A
6:00 am8 °FFrigid.1 mph87%30.65 "HgN/A
5:00 am9 °FFrigid.1 mph86%30.64 "HgN/A
4:00 am11 °FCold.1 mph86%30.64 "HgN/A
3:00 am11 °FCold.No wind88%30.64 "HgN/A
2:00 am13 °FCold.1 mph87%30.63 "HgN/A
1:00 am16 °FCold.1 mph86%30.61 "HgN/A
12:00 am17 °FCold.1 mph86%30.59 "HgN/A
11:00 pm
Tue, Jan 17
19 °FCold.1 mph85%30.58 "HgN/A
10:00 pm22 °FCold.2 mph80%30.56 "HgN/A
9:00 pm22 °FCold.2 mph80%30.56 "HgN/A
Weather by CustomWeather, © 2017

See weather overviewHow to use our weather pages